STARLINK-35412, 65797

Orbit data source: Space-Track

STARLINK-35412, 65797 is a payload satellite owned by SpaceX/Seattle (US) in SSO that was launched on Fri, 26 Sep 2025 UTC via an FALCON 9 launch vehicle from the Air Force Western Test Range (AFWTR). Payload-class satellites include a variety of spacecraft equipped with specific instruments for various scientific and technological missions. These include communications satellites like Starlink; space stations such as the ISS; scientific satellites like the Hubble; Earth observation satellites from companies like Planet Labs, Umbra, and HawkEye 360; GPS; miniature CubeSats for education and research; and military/defense satellites.

Loading next visibility...
Identifier
65797, 2025-218G
Orbit
SSO
Country
Flag of USUS
Related business
Manufacturer
SpaceX/Seattle
Mission
Operational Commercial Communications
Bus & Motor
STARLINK V2MO, Unknown motor
Mass
575 kg wet, ~530 kg dry
Launch date (UTC)
2025-09-26 (5 months ago)
Launch vehicle
FALCON 9
Launch site
Air Force Western Test Range (AFWTR)
Object type
Payload
Rocket body
Debris
Shape & HBR
Box + 2 Pan, 17.7 m
Radar Cross Section
36.964 m²

Expand to show TLE details & history
Last TLE update: 9 hours ago

TLE from 9 hours ago
0 STARLINK-35412
1 65797U 25218G   26062.50567359  .00005634  00000-0  39431-3 0  9999
2 65797  97.6015 286.9285 0001482  88.4474 271.6922 15.05655342 24049
Epoch: 2026-03-03T12:08Z
TLE epoch observation values (Epoch: 2026-03-03T12:08:10.198Z)
Latitude
-0.00006°
Longitude
-56.39775°
Altitude
552.53 km
Speed
7.586 km/s
True Right ascension
19h 07m 42s
True Declination
0° 00' 00"
Sunlit
Object was in daylight at epoch
Visualization orbit readout
Latitude
Unknown
Longitude
Unknown
Altitude
Unknown
Speed
Unknown
Apparent Right ascension
Unknown
Apparent Declination
Unknown
Sunlit
N/A
Visualization observer readout
Local Sidereal Time
00:34:34
Azimuth
Unknown
Elevation
Unknown
Doppler factor
Unknown
Orbital elements
Apogee altitude
547.514 km
Perigee altitude
545.462 km
Semi-major axis
6,924.625 km
Eccentricity
0.00015
Inclination
97.6015°
RAAN
286.9285°
Arg. of periapsis
88.4474°
True anomaly
271.67522°
Mean anomaly
271.6922°
Eccentric anomaly
271.68371°
Mean motion
3.76659 °/min
Orbital period
95.58 mins
BSTAR
0.00039431
Loading maneuver chart data...
Computing Atmospheric mass density...
Loading historical data...
Loading historical data...
Loading historical data...
Loading historical data...
Loading historical data...
Loading historical data...
Loading historical data...

Documentation

Showing up to 5 results
|